User: anonymous   Login
Location: Unspecified
(0.0000°N, 0.0000°E)
Time: 02:51:41
(UTC+02:00)
Language:

Cosmos 1315 Rocket - Orbit

View from above orbital plane
View from above orbital plane
View from above satellite
View from above satellite

Ground track
Ground track

The orbit data is extracted from the following two-line orbital elements,

1 12904U 81103B   17207.26396670 +.00000237 +00000-0 +14844-4 0  9992
2 12904 081.1751 230.9353 0027235 298.2327 061.6146 15.05297750498486
Epoch (UTC): 26 July 2017 06:20:06
Eccentricity: 0.0027235
inclination: 81.1751°
perigee height: 532 km
apogee height: 569 km
right ascension of ascending node: 230.9353°
argument of perigee: 298.2327°
revolutions per day: 15.05297750
mean anomaly at epoch: 61.6146°
orbit number at epoch: 49848

The dashed part of the orbit path shows where the satellite is in the earth's shadow,  

DLR